Home > Weather > Helsinki > Past weeks

Flag for Finland Weather for the Past 2 Weeks in Helsinki, Finland

Now
32 °F

Broken clouds.


Feels Like: 23 °F
Forecast: 36 / 38 °F
Wind: 12 mph from Southeast

Location: Helsinki-Vantaa

Current Time: Feb 6, 2016 at 1:51:35 PM

Latest Report: Feb 6, 2016 at 1:20 PM


Visibility: N/A

Pressure: 29.89 "Hg

Humidity: 87%

Dew point: 28 °F

Location of HelsinkiLocation

Historic Weather in Helsinki — Graph

°F

Helsinki Temperature Yesterday

Maximum temperature yesterday: 32 °F (at 2:50 AM)
Minimum temperature yesterday: 23 °F (at 3:20 PM)
Average temperature yesterday: 27 °F

High & Low Weather Summary for the Past Weeks

 TemperatureHumidityPressure
High41 °F (Jan 30, 2:20 AM)100% (Jan 23, 11:20 AM)30.42 "Hg (Jan 23, 11:20 AM)
Low-11 °F (Jan 22, 12:20 PM)69% (Feb 5, 2:50 PM)28.71 "Hg (Feb 2, 7:20 AM)
Average30 °F92%29.50 "Hg
* Reported Jan 22 12:20 PM — Feb 6 12:50 PM, Helsinki, Weather by CustomWeather, © 2016

Note: Actual official high and low records may vary slightly from our data, if they occured in-between our weather recording intervals... More about our weather records

Advertising

Helsinki Weather History for the Previous 24 Hours

 ConditionsComfort  
Time TempWeatherWind HumidityBarometerVisibility
12:50 PM
Sat, Feb 6
30 °FPartly sunny.12 mph93%29.89 "HgN/A
12:20 PM28 °FPartly sunny.10 mph93%29.92 "HgN/A
11:50 AM28 °FPartly sunny.9 mph86%29.92 "HgN/A
11:20 AM27 °FPartly sunny.8 mph86%29.95 "HgN/A
10:50 AM25 °FPartly sunny.8 mph86%29.95 "HgN/A
10:20 AM23 °FPartly sunny.6 mph93%29.95 "HgN/A
9:50 AM23 °FPartly sunny.5 mph86%29.95 "HgN/A
9:20 AM21 °FPartly sunny.6 mph93%29.95 "HgN/A
8:50 AM21 °FPartly sunny.2 mph86%29.95 "HgN/A
8:20 AM19 °FPassing clouds.5 mph93%29.95 "HgN/A
7:50 AM18 °FPassing clouds.2 mph93%29.95 "HgN/A
7:20 AM18 °FPassing clouds.3 mph93%29.95 "HgN/A
6:50 AM19 °FPassing clouds.6 mph93%29.95 "HgN/A
5:50 AM21 °FPassing clouds.5 mph86%29.95 "HgN/A
5:20 AM21 °FPassing clouds.2 mph86%29.95 "HgN/A
4:50 AM21 °FOvercast.3 mph86%29.95 "HgN/A
3:50 AM23 °FOvercast.5 mph80%29.95 "HgN/A
3:20 AM23 °FOvercast.6 mph86%29.95 "HgN/A
2:20 AM23 °FOvercast.5 mph86%29.92 "HgN/A
1:50 AM23 °FOvercast.8 mph86%29.92 "HgN/A
1:20 AM23 °FOvercast.7 mph86%29.92 "HgN/A
12:50 AM23 °FOvercast.5 mph86%29.89 "HgN/A
12:20 AM23 °FOvercast.6 mph80%29.89 "HgN/A
11:50 PM
Fri, Feb 5
23 °FOvercast.12 mph80%29.89 "HgN/A
11:20 PM23 °FOvercast.10 mph80%29.86 "HgN/A
10:50 PM23 °FOvercast.10 mph80%29.86 "HgN/A
10:20 PM23 °FOvercast.10 mph80%29.86 "HgN/A
9:50 PM23 °FOvercast.9 mph80%29.86 "HgN/A
9:20 PM23 °FOvercast.9 mph80%29.83 "HgN/A
8:50 PM23 °FOvercast.10 mph80%29.83 "HgN/A
8:20 PM23 °FOvercast.10 mph80%29.83 "HgN/A
7:50 PM23 °FOvercast.10 mph80%29.80 "HgN/A
7:20 PM23 °FOvercast.10 mph80%29.80 "HgN/A
6:50 PM23 °FOvercast.13 mph80%29.77 "HgN/A
6:20 PM23 °FOvercast.15 mph80%29.77 "HgN/A
5:50 PM23 °FOvercast.15 mph80%29.74 "HgN/A
5:20 PM23 °FOvercast.16 mph80%29.74 "HgN/A
4:50 PM23 °FPassing clouds.14 mph80%29.71 "HgN/A
4:20 PM23 °FPartly sunny.21 mph80%29.71 "HgN/A
3:50 PM23 °FPartly sunny.18 mph80%29.68 "HgN/A
3:20 PM23 °FPartly sunny.15 mph74%29.68 "HgN/A
2:50 PM25 °FScattered clouds.18 mph69%29.65 "HgN/A
2:20 PM25 °FPassing clouds.18 mph74%29.62 "HgN/A
1:50 PM25 °FScattered clouds.18 mph74%29.62 "HgN/A
1:20 PM25 °FScattered clouds.15 mph80%29.59 "HgN/A
Weather by CustomWeather, © 2016

See weather overviewHow to use our weather pages